Content
SEND FEEDBACK

Daily
Averages
Monthly
Summary
United States of America

STATEN ISLAND, NEW YORK


Home > North America > United States > New York
Elevation: 152 feet     Latitude: 40 35N     Longitude: 074 09W

WEATHER
 
SELECT A DAY
Number of Records: 189,442;   Date Range: 1/1/95 - 7/7/14
 
SHARE

PRINT THIS DATA

[ ← Previous Day ]
WEATHER ALMANAC - MAY 19, 2013
[ Next Day → ]
[ °C ]   °F
Weather ElementAverageHighLow
Temperature57.2 °F59 °F (1:51 am)55.4 °F (4:44 am)
Dewpoint55.8 °F57.9 °F (11:51 pm)53.6 °F (1:57 am)
Humidity95.2 %100 % (6:49 am)83 % (1:51 am)
Barometer30.26 in30.32 in (9:51 am)30.18 in (8:47 pm)
Wind Speed7.1 mph10.4 mph (12:51 pm)
Wind Gust18.4 mph (1:51 pm)
Weather ElementAverage
Visibility3.2 mi
Wind DirectionESE (116.5 °)

Weather ElementTotal
Precipitation0.42 in
Heating Degree Days7.8 (Base 65)
Growing Degree Days7.2 (Base 50)
Averaged from 31 records on May 19, 2013
WEATHER CONDITIONS BREAKOUT
WIND DIRECTION BREAKOUT
WEATHER BY HOUR - MAY 19, 2013
[ °C ]   °F
Local TimeTemperatureDewpointHumidityBarometerVisibilityWind DirectionWind SpeedGust SpeedPrecipitationEventsConditions
1:51 AM59.0 °F54.0 °F83 %30.29 in10.0 miSouth (170°)8.1 mph17.3 mphOvercast
1:57 AM57.2 °F53.6 °F88 %30.29 in10.0 miSSE (160°)8.1 mphOvercast
2:51 AM57.0 °F55.0 °F93 %30.28 in7.0 miSouth (170°)6.9 mph0.00 inRainLight Rain
3:51 AM57.2 °F55.4 °F94 %30.29 in6.0 miVariable3.5 mphRainLight Rain
4:44 AM55.4 °F53.6 °F94 %30.28 in7.0 miSSE (150°)8.1 mph0.04 inRainLight Rain
4:51 AM55.9 °F54.0 °F93 %30.28 in7.0 miSSE (160°)8.1 mph0.04 inOvercast
5:41 AM55.4 °F53.6 °F94 %30.29 in6.0 miSSE (150°)8.1 mph0.03 inRainLight Rain
5:51 AM55.9 °F54.0 °F93 %30.29 in6.0 miSE (140°)5.8 mph0.03 inRainLight Rain
6:49 AM55.4 °F55.4 °F100 %30.30 in2.5 miSSE (160°)4.6 mph0.01 inRainLight Rain
6:51 AM55.9 °F55.0 °F97 %30.30 in2.5 miSSE (160°)4.6 mph0.02 inRainLight Rain
7:51 AM57.0 °F55.0 °F93 %30.30 in2.5 miSSE (150°)9.2 mph0.03 inRainLight Rain
8:51 AM57.0 °F55.9 °F96 %30.31 in2.5 miSE (140°)9.2 mph0.01 inLight Drizzle
9:51 AM57.0 °F55.9 °F96 %30.32 in2.5 miESE (110°)8.1 mph0.02 inRainLight Rain
10:32 AM57.2 °F55.4 °F94 %30.31 in2.0 miESE (110°)9.2 mph0.03 inRainLight Rain
10:51 AM57.9 °F55.9 °F93 %30.32 in2.0 miESE (120°)8.1 mph0.04 inRainLight Rain
11:51 AM57.0 °F55.9 °F96 %30.31 in2.0 miESE (120°)6.9 mph16.1 mph0.03 inLight Drizzle
12:51 PM57.9 °F55.9 °F93 %30.29 in2.0 miESE (110°)10.4 mph0.03 inRainLight Rain
1:51 PM57.9 °F55.9 °F93 %30.27 in2.0 miESE (110°)8.1 mph18.4 mph0.03 inRainLight Rain
2:51 PM57.9 °F55.9 °F93 %30.26 in2.0 miESE (110°)8.1 mph0.01 inRainLight Rain
3:51 PM57.9 °F55.9 °F93 %30.23 in2.0 miESE (120°)10.4 mph0.01 inLight Drizzle
4:51 PM57.9 °F57.0 °F97 %30.23 in2.0 miVariable3.5 mph0.00 inLight Drizzle
5:51 PM57.9 °F57.0 °F97 %30.22 in2.0 miESE (110°)8.1 mph0.01 inLight Drizzle
6:51 PM57.9 °F57.0 °F97 %30.22 in2.0 miEast (100°)9.2 mph0.00 inLight Drizzle
7:51 PM57.9 °F57.0 °F97 %30.21 in2.0 miESE (110°)4.6 mph0.00 inLight Drizzle
8:47 PM57.2 °F57.2 °F100 %30.18 in2.0 miESE (120°)6.9 mph0.00 inLight Drizzle
8:51 PM57.9 °F57.0 °F97 %30.19 in2.0 miESE (120°)5.8 mph0.00 inLight Drizzle
9:26 PM57.2 °F57.2 °F100 %30.18 in1.0 miEast (90°)5.8 mphLight Drizzle
9:41 PM57.2 °F57.2 °F100 %30.19 in0.5 miESE (120°)5.8 mph0.00 inLight Drizzle
9:51 PM57.0 °F57.0 °F100 %30.19 in0.5 miEast (100°)5.8 mph0.00 inLight Drizzle
10:51 PM57.9 °F57.0 °F97 %30.20 in0.5 miENE (70°)8.1 mph0.00 inLight Drizzle
11:51 PM57.9 °F57.9 °F100 %30.18 in0.5 miNE (50°)3.5 mph0.00 inLight Drizzle
Hourly data recorded from KEWR, located miles away from Staten Island, New York







STORIES FROM OUR PARTNERS